| time (UTC) | temp C | wind direction | speed KPH | gust KPH | rain 1hr cm | rain 24hr cm | rain mn cm | humidity % | barometer mb |
| 20260508014631 | 14 | 198 | 14.5 | 16.1 | 0.00 | 0.00 | 0.00 | 70 | 1011.3 |
| 20260508014434 | 14 | 202 | 14.5 | 16.1 | 0.00 | 0.00 | 0.00 | 70 | 1011.3 |
| 20260508014213 | 14 | 202 | 12.9 | 16.1 | 0.00 | 0.00 | 0.00 | 69 | 1011.3 |
| 20260508014012 | 14 | 205 | 12.9 | 16.1 | 0.00 | 0.00 | 0.00 | 69 | 1011.3 |
| 20260508013816 | 14 | 204 | 12.9 | 14.5 | 0.00 | 0.00 | 0.00 | 69 | 1011.3 |
| 20260508013555 | 14 | 206 | 11.3 | 14.5 | 0.00 | 0.00 | 0.00 | 69 | 1011.3 |
| 20260508013355 | 15 | 203 | 9.7 | 12.9 | 0.00 | 0.00 | 0.00 | 69 | 1011.3 |
| 20260508013159 | 15 | 203 | 9.7 | 11.3 | 0.00 | 0.00 | 0.00 | 69 | 1011.3 |
| 20260508012958 | 15 | 208 | 9.7 | 11.3 | 0.00 | 0.00 | 0.00 | 68 | 1011.3 |
| 20260508012740 | 15 | 208 | 9.7 | 11.3 | 0.00 | 0.00 | 0.00 | 67 | 1011.3 |
| 20260508012540 | 15 | 207 | 9.7 | 11.3 | 0.00 | 0.00 | 0.00 | 67 | 1011.3 |
| 20260508012339 | 15 | 209 | 9.7 | 11.3 | 0.00 | 0.00 | 0.00 | 66 | 1011.3 |
| 20260508012143 | 15 | 207 | 8.0 | 9.7 | 0.00 | 0.00 | 0.00 | 65 | 1011.2 |
| 20260508011922 | 15 | 211 | 8.0 | 9.7 | 0.00 | 0.00 | 0.00 | 64 | 1011.3 |
| 20260508011712 | 16 | 211 | 8.0 | 9.7 | 0.00 | 0.00 | 0.00 | 63 | 1011.3 |
| 20260508011316 | 16 | 211 | 6.4 | 9.7 | 0.00 | 0.00 | 0.00 | 61 | 1011.2 |
| 20260508011059 | 16 | 214 | 6.4 | 9.7 | 0.00 | 0.00 | 0.00 | 60 | 1011.2 |
| 20260508010859 | 16 | 217 | 6.4 | 9.7 | 0.00 | 0.00 | 0.00 | 59 | 1011.2 |
| 20260508010637 | 16 | 225 | 6.4 | 9.7 | 0.00 | 0.00 | 0.00 | 59 | 1011.2 |
| 20260508010441 | 16 | 228 | 6.4 | 9.7 | 0.00 | 0.00 | 0.00 | 57 | 1011.2 |
| 20260508010240 | 16 | 228 | 6.4 | 9.7 | 0.00 | 0.00 | 0.00 | 58 | 1011.2 |
| 20260508010044 | 16 | 233 | 6.4 | 11.3 | 0.00 | 0.00 | 0.00 | 58 | 1011.2 |
| 20260508005844 | 16 | 229 | 6.4 | 11.3 | 0.00 | 0.00 | 0.00 | 59 | 1011.2 |
| 20260508005644 | 16 | 224 | 6.4 | 11.3 | 0.00 | 0.00 | 0.00 | 58 | 1011.1 |
| 20260508005447 | 17 | 225 | 6.4 | 11.3 | 0.00 | 0.00 | 0.00 | 58 | 1011.2 |
| 20260508005247 | 17 | 226 | 6.4 | 11.3 | 0.00 | 0.00 | 0.00 | 57 | 1011.1 |
| 20260508005047 | 17 | 236 | 6.4 | 11.3 | 0.00 | 0.00 | 0.00 | 58 | 1011.2 |
| 20260508004851 | 17 | 232 | 6.4 | 14.5 | 0.00 | 0.00 | 0.00 | 58 | 1011.2 |
| 20260508004651 | 17 | 229 | 8.0 | 14.5 | 0.00 | 0.00 | 0.00 | 59 | 1011.2 |
| 20260508004455 | 17 | 233 | 8.0 | 14.5 | 0.00 | 0.00 | 0.00 | 58 | 1011.1 |
| 20260508004253 | 17 | 234 | 8.0 | 16.1 | 0.00 | 0.00 | 0.00 | 57 | 1011.1 |
| 20260508004053 | 17 | 244 | 9.7 | 16.1 | 0.00 | 0.00 | 0.00 | 57 | 1011.1 |
| 20260508003837 | 17 | 234 | 9.7 | 16.1 | 0.00 | 0.00 | 0.00 | 56 | 1011.1 |
| 20260508003636 | 17 | 237 | 11.3 | 16.1 | 0.00 | 0.00 | 0.00 | 56 | 1011.1 |
| 20260508003440 | 17 | 229 | 12.9 | 16.1 | 0.00 | 0.00 | 0.00 | 54 | 1011.1 |
| 20260508003239 | 17 | 240 | 11.3 | 17.7 | 0.00 | 0.00 | 0.00 | 54 | 1011.1 |
| 20260508003040 | 17 | 244 | 12.9 | 17.7 | 0.00 | 0.00 | 0.00 | 55 | 1011.1 |
| 20260508002842 | 17 | 238 | 11.3 | 17.7 | 0.00 | 0.00 | 0.00 | 54 | 1011.1 |
| 20260508002643 | 17 | 242 | 12.9 | 17.7 | 0.00 | 0.00 | 0.00 | 54 | 1011.1 |
| 20260508002442 | 18 | 249 | 12.9 | 17.7 | 0.00 | 0.00 | 0.00 | 54 | 1011.0 |
| 20260508002245 | 18 | 248 | 11.3 | 22.5 | 0.00 | 0.00 | 0.00 | 52 | 1011.1 |
| 20260508002045 | 18 | 254 | 11.3 | 22.5 | 0.00 | 0.00 | 0.00 | 54 | 1011.0 |
| 20260508001849 | 18 | 244 | 12.9 | 22.5 | 0.00 | 0.00 | 0.00 | 54 | 1011.0 |
| 20260508001648 | 18 | 246 | 14.5 | 22.5 | 0.00 | 0.00 | 0.00 | 51 | 1011.0 |
| 20260508001501 | 18 | 242 | 14.5 | 20.9 | 0.00 | 0.00 | 0.00 | 52 | 1011.0 |
| 20260508001126 | 18 | 242 | 14.5 | 19.3 | 0.00 | 0.00 | 0.00 | 52 | 1011.0 |
| 20260508000905 | 18 | 248 | 14.5 | 19.3 | 0.00 | 0.00 | 0.00 | 52 | 1011.0 |
| 20260508000709 | 18 | 244 | 14.5 | 19.3 | 0.00 | 0.00 | 0.00 | 53 | 1011.0 |
| 20260508000509 | 18 | 258 | 14.5 | 24.1 | 0.00 | 0.00 | 0.00 | 52 | 1011.0 |
| 20260508000253 | 18 | 248 | 16.1 | 24.1 | 0.00 | 0.00 | 0.00 | 52 | 1011.0 |
| 20260508000053 | 18 | 242 | 17.7 | 25.7 | 0.00 | 0.00 | 0.00 | 51 | 1011.0 |
| 20260507235852 | 18 | 242 | 17.7 | 25.7 | 0.00 | 0.00 | 0.00 | 52 | 1011.0 |
| 20260507235634 | 18 | 265 | 19.3 | 25.7 | 0.00 | 0.00 | 0.00 | 52 | 1011.0 |
| 20260507235434 | 18 | 258 | 19.3 | 25.7 | 0.00 | 0.00 | 0.00 | 51 | 1010.9 |
| 20260507235239 | 18 | 254 | 17.7 | 25.7 | 0.00 | 0.00 | 0.00 | 52 | 1011.0 |
| 20260507235038 | 18 | 254 | 17.7 | 25.7 | 0.00 | 0.00 | 0.00 | 51 | 1011.0 |
| 20260507234838 | 18 | 244 | 17.7 | 25.7 | 0.00 | 0.00 | 0.00 | 53 | 1011.0 |
| 20260507234641 | 18 | 255 | 19.3 | 29.0 | 0.00 | 0.00 | 0.00 | 49 | 1011.0 |
| 20260507234441 | 18 | 241 | 19.3 | 30.6 | 0.00 | 0.00 | 0.00 | 51 | 1010.9 |
| 20260507234220 | 18 | 248 | 20.9 | 30.6 | 0.00 | 0.00 | 0.00 | 50 | 1010.9 |
| 20260507234023 | 18 | 239 | 22.5 | 32.2 | 0.00 | 0.00 | 0.00 | 49 | 1011.0 |
| 20260507233822 | 18 | 242 | 22.5 | 32.2 | 0.00 | 0.00 | 0.00 | 50 | 1011.0 |
| 20260507233627 | 18 | 242 | 24.1 | 32.2 | 0.00 | 0.00 | 0.00 | 51 | 1011.0 |
| 20260507233426 | 18 | 237 | 24.1 | 33.8 | 0.00 | 0.00 | 0.00 | 51 | 1010.9 |
| 20260507233205 | 18 | 246 | 24.1 | 33.8 | 0.00 | 0.00 | 0.00 | 50 | 1011.0 |
| 20260507233009 | 18 | 253 | 22.5 | 33.8 | 0.00 | 0.00 | 0.00 | 51 | 1011.0 |
| 20260507232808 | 18 | 254 | 20.9 | 33.8 | 0.00 | 0.00 | 0.00 | 51 | 1011.0 |
| 20260507232612 | 18 | 240 | 17.7 | 27.4 | 0.00 | 0.00 | 0.00 | 51 | 1010.9 |
| 20260507232346 | 18 | 236 | 16.1 | 25.7 | 0.00 | 0.00 | 0.00 | 52 | 1010.9 |
| 20260507232146 | 18 | 242 | 17.7 | 25.7 | 0.00 | 0.00 | 0.00 | 53 | 1010.9 |
| 20260507231949 | 18 | 237 | 17.7 | 25.7 | 0.00 | 0.00 | 0.00 | 51 | 1011.0 |
| 20260507231750 | 18 | 249 | 17.7 | 25.7 | 0.00 | 0.00 | 0.00 | 50 | 1011.0 |
| 20260507231602 | 18 | 255 | 17.7 | 27.4 | 0.00 | 0.00 | 0.00 | 51 | 1011.0 |
| 20260507231226 | 18 | 241 | 20.9 | 27.4 | 0.00 | 0.00 | 0.00 | 49 | 1011.0 |
| 20260507231026 | 18 | 246 | 22.5 | 27.4 | 0.00 | 0.00 | 0.00 | 50 | 1011.0 |
| 20260507230826 | 18 | 256 | 22.5 | 32.2 | 0.00 | 0.00 | 0.00 | 51 | 1011.1 |
| 20260507230625 | 18 | 225 | 22.5 | 35.4 | 0.00 | 0.00 | 0.00 | 50 | 1011.0 |
| 20260507230429 | 18 | 253 | 24.1 | 35.4 | 0.00 | 0.00 | 0.00 | 50 | 1011.1 |
| 20260507230228 | 18 | 265 | 25.7 | 35.4 | 0.00 | 0.00 | 0.00 | 50 | 1011.1 |
| 20260507230028 | 18 | 254 | 25.7 | 35.4 | 0.00 | 0.00 | 0.00 | 48 | 1011.2 |
| 20260507225832 | 18 | 249 | 25.7 | 35.4 | 0.00 | 0.00 | 0.00 | 49 | 1011.2 |
| 20260507225631 | 18 | 246 | 24.1 | 33.8 | 0.00 | 0.00 | 0.00 | 48 | 1011.2 |
| 20260507225414 | 18 | 240 | 25.7 | 33.8 | 0.00 | 0.00 | 0.00 | 48 | 1011.2 |
| 20260507225214 | 18 | 242 | 24.1 | 33.8 | 0.00 | 0.00 | 0.00 | 50 | 1011.2 |
| 20260507224952 | 18 | 228 | 24.1 | 33.8 | 0.00 | 0.00 | 0.00 | 48 | 1011.3 |
| 20260507224734 | 18 | 229 | 22.5 | 30.6 | 0.00 | 0.00 | 0.00 | 50 | 1011.3 |
| 20260507224534 | 18 | 245 | 20.9 | 29.0 | 0.00 | 0.00 | 0.00 | 50 | 1011.3 |
| 20260507224338 | 18 | 252 | 19.3 | 33.8 | 0.00 | 0.00 | 0.00 | 51 | 1011.3 |
| 20260507224116 | 18 | 261 | 22.5 | 33.8 | 0.00 | 0.00 | 0.00 | 51 | 1011.3 |
| 20260507223855 | 18 | 252 | 22.5 | 33.8 | 0.00 | 0.00 | 0.00 | 51 | 1011.4 |
| 20260507223659 | 18 | 252 | 22.5 | 33.8 | 0.00 | 0.00 | 0.00 | 51 | 1011.3 |
| 20260507223459 | 18 | 265 | 22.5 | 30.6 | 0.00 | 0.00 | 0.00 | 51 | 1011.3 |
| 20260507223258 | 18 | 258 | 22.5 | 30.6 | 0.00 | 0.00 | 0.00 | 50 | 1011.4 |
| 20260507223102 | 18 | 246 | 24.1 | 30.6 | 0.00 | 0.00 | 0.00 | 50 | 1011.4 |
| 20260507222902 | 18 | 254 | 24.1 | 33.8 | 0.00 | 0.00 | 0.00 | 50 | 1011.4 |
| 20260507222706 | 18 | 240 | 25.7 | 33.8 | 0.00 | 0.00 | 0.00 | 49 | 1011.6 |
| 20260507222505 | 18 | 246 | 24.1 | 33.8 | 0.00 | 0.00 | 0.00 | 48 | 1011.5 |
| 20260507222306 | 18 | 246 | 22.5 | 33.8 | 0.00 | 0.00 | 0.00 | 49 | 1011.5 |
| 20260507222110 | 18 | 259 | 20.9 | 33.8 | 0.00 | 0.00 | 0.00 | 50 | 1011.4 |
| 20260507221910 | 18 | 240 | 20.9 | 32.2 | 0.00 | 0.00 | 0.00 | 49 | 1011.4 |
| 20260507221713 | 18 | 248 | 20.9 | 32.2 | 0.00 | 0.00 | 0.00 | 50 | 1011.4 |
| 20260507221520 | 18 | 264 | 22.5 | 32.2 | 0.00 | 0.00 | 0.00 | 49 | 1011.4 |
| 20260507221149 | 18 | 249 | 22.5 | 33.8 | 0.00 | 0.00 | 0.00 | 46 | 1011.4 |
| 20260507220927 | 18 | 248 | 25.7 | 40.2 | 0.00 | 0.00 | 0.00 | 48 | 1011.4 |
| 20260507220727 | 18 | 244 | 25.7 | 40.2 | 0.00 | 0.00 | 0.00 | 49 | 1011.4 |
| 20260507220531 | 18 | 261 | 27.4 | 40.2 | 0.00 | 0.00 | 0.00 | 48 | 1011.4 |
| 20260507220331 | 18 | 251 | 25.7 | 40.2 | 0.00 | 0.00 | 0.00 | 48 | 1011.5 |
| 20260507220134 | 18 | 263 | 24.1 | 40.2 | 0.00 | 0.00 | 0.00 | 50 | 1011.4 |
| 20260507215934 | 18 | 254 | 22.5 | 37.0 | 0.00 | 0.00 | 0.00 | 48 | 1011.5 |
| 20260507215713 | 18 | 236 | 24.1 | 40.2 | 0.00 | 0.00 | 0.00 | 47 | 1011.6 |
| 20260507215517 | 18 | 250 | 25.7 | 40.2 | 0.00 | 0.00 | 0.00 | 48 | 1011.5 |
| 20260507215317 | 19 | 265 | 25.7 | 40.2 | 0.00 | 0.00 | 0.00 | 46 | 1011.6 |
| 20260507215117 | 19 | 244 | 27.4 | 40.2 | 0.00 | 0.00 | 0.00 | 49 | 1011.6 |
| 20260507214922 | 19 | 257 | 25.7 | 40.2 | 0.00 | 0.00 | 0.00 | 49 | 1011.5 |
| 20260507214700 | 19 | 247 | 24.1 | 40.2 | 0.00 | 0.00 | 0.00 | 50 | 1011.5 |
| 20260507214504 | 19 | 261 | 22.5 | 38.6 | 0.00 | 0.00 | 0.00 | 52 | 1011.5 |
| 20260507214303 | 19 | 261 | 20.9 | 29.0 | 0.00 | 0.00 | 0.00 | 48 | 1011.5 |
| 20260507214103 | 19 | 246 | 20.9 | 37.0 | 0.00 | 0.00 | 0.00 | 49 | 1011.5 |
| 20260507213908 | 19 | 243 | 22.5 | 37.0 | 0.00 | 0.00 | 0.00 | 49 | 1011.5 |
| 20260507213706 | 19 | 246 | 24.1 | 37.0 | 0.00 | 0.00 | 0.00 | 51 | 1011.5 |
| 20260507213510 | 18 | 263 | 25.7 | 37.0 | 0.00 | 0.00 | 0.00 | 49 | 1011.6 |
| 20260507213310 | 18 | 266 | 27.4 | 35.4 | 0.00 | 0.00 | 0.00 | 49 | 1011.5 |
| 20260507213110 | 18 | 248 | 24.1 | 30.6 | 0.00 | 0.00 | 0.00 | 51 | 1011.6 |
| 20260507212914 | 18 | 249 | 22.5 | 37.0 | 0.00 | 0.00 | 0.00 | 46 | 1011.8 |
| 20260507212714 | 18 | 261 | 22.5 | 37.0 | 0.00 | 0.00 | 0.00 | 50 | 1011.8 |
| 20260507212453 | 18 | 250 | 22.5 | 37.0 | 0.00 | 0.00 | 0.00 | 48 | 1011.7 |
| 20260507212256 | 18 | 259 | 24.1 | 33.8 | 0.00 | 0.00 | 0.00 | 48 | 1011.7 |
| 20260507212056 | 18 | 267 | 24.1 | 33.8 | 0.00 | 0.00 | 0.00 | 49 | 1011.7 |
| 20260507211859 | 18 | 258 | 25.7 | 38.6 | 0.00 | 0.00 | 0.00 | 48 | 1011.7 |
| 20260507211659 | 18 | 263 | 29.0 | 38.6 | 0.00 | 0.00 | 0.00 | 49 | 1011.8 |
| 20260507211512 | 18 | 254 | 29.0 | 38.6 | 0.00 | 0.00 | 0.00 | 49 | 1011.8 |
| 20260507211136 | 18 | 259 | 30.6 | 38.6 | 0.00 | 0.00 | 0.00 | 49 | 1011.9 |
| 20260507210936 | 18 | 259 | 27.4 | 37.0 | 0.00 | 0.00 | 0.00 | 51 | 1011.9 |
| 20260507210718 | 18 | 263 | 27.4 | 35.4 | 0.00 | 0.00 | 0.00 | 50 | 1011.8 |
| 20260507210518 | 18 | 255 | 27.4 | 35.4 | 0.00 | 0.00 | 0.00 | 50 | 1011.8 |
| 20260507210259 | 18 | 261 | 25.7 | 35.4 | 0.00 | 0.00 | 0.00 | 49 | 1011.9 |
| 20260507210038 | 18 | 252 | 24.1 | 37.0 | 0.00 | 0.00 | 0.00 | 48 | 1012.0 |
| 20260507205837 | 18 | 243 | 25.7 | 43.5 | 0.00 | 0.00 | 0.00 | 49 | 1012.0 |
| 20260507205640 | 18 | 244 | 27.4 | 43.5 | 0.00 | 0.00 | 0.00 | 48 | 1012.0 |
| 20260507205440 | 18 | 235 | 25.7 | 43.5 | 0.00 | 0.00 | 0.00 | 50 | 1012.1 |
| 20260507205244 | 18 | 244 | 24.1 | 43.5 | 0.00 | 0.00 | 0.00 | 48 | 1012.2 |
| 20260507205023 | 18 | 245 | 22.5 | 33.8 | 0.00 | 0.00 | 0.00 | 51 | 1012.1 |
| 20260507204822 | 18 | 222 | 24.1 | 33.8 | 0.00 | 0.00 | 0.00 | 51 | 1012.2 |
| 20260507204626 | 18 | 234 | 25.7 | 33.8 | 0.00 | 0.00 | 0.00 | 52 | 1012.3 |
| 20260507204426 | 18 | 255 | 25.7 | 40.2 | 0.00 | 0.00 | 0.00 | 56 | 1012.2 |
| 20260507204205 | 18 | 278 | 27.4 | 40.2 | 0.00 | 0.00 | 0.00 | 56 | 1012.3 |
| 20260507204008 | 18 | 250 | 27.4 | 40.2 | 0.00 | 0.00 | 0.00 | 48 | 1012.3 |
| 20260507203747 | 18 | 269 | 27.4 | 38.6 | 0.00 | 0.00 | 0.00 | 49 | 1012.4 |
| 20260507203550 | 18 | 272 | 25.7 | 38.6 | 0.00 | 0.00 | 0.00 | 52 | 1012.4 |
| 20260507203351 | 18 | 261 | 27.4 | 38.6 | 0.00 | 0.00 | 0.00 | 49 | 1012.4 |
| 20260507203128 | 18 | 257 | 27.4 | 38.6 | 0.00 | 0.00 | 0.00 | 49 | 1012.6 |
| 20260507202932 | 18 | 259 | 25.7 | 35.4 | 0.00 | 0.00 | 0.00 | 52 | 1012.6 |
| 20260507202732 | 18 | 257 | 24.1 | 35.4 | 0.00 | 0.00 | 0.00 | 51 | 1012.7 |
| 20260507202514 | 18 | 239 | 24.1 | 37.0 | 0.00 | 0.00 | 0.00 | 52 | 1012.6 |
| 20260507202314 | 17 | 274 | 25.7 | 37.0 | 0.00 | 0.00 | 0.00 | 52 | 1012.6 |
| 20260507202051 | 17 | 261 | 27.4 | 33.8 | 0.00 | 0.00 | 0.00 | 50 | 1012.7 |
| 20260507201833 | 17 | 254 | 27.4 | 38.6 | 0.00 | 0.00 | 0.00 | 52 | 1012.8 |
| 20260507201619 | 17 | 258 | 25.7 | 38.6 | 0.00 | 0.00 | 0.00 | 52 | 1012.8 |
| 20260507201249 | 18 | 245 | 25.7 | 38.6 | 0.00 | 0.00 | 0.00 | 51 | 1012.9 |
| 20260507201048 | 18 | 245 | 25.7 | 38.6 | 0.00 | 0.00 | 0.00 | 51 | 1013.1 |
| 20260507200831 | 18 | 279 | 25.7 | 38.6 | 0.00 | 0.00 | 0.00 | 48 | 1012.9 |
| 20260507200610 | 18 | 238 | 27.4 | 40.2 | 0.00 | 0.00 | 0.00 | 48 | 1013.1 |
| 20260507200411 | 18 | 252 | 25.7 | 40.2 | 0.00 | 0.00 | 0.00 | 50 | 1013.1 |
| 20260507200215 | 18 | 254 | 25.7 | 40.2 | 0.00 | 0.00 | 0.00 | 50 | 1013.1 |
| 20260507195953 | 18 | 246 | 24.1 | 40.2 | 0.00 | 0.00 | 0.00 | 50 | 1013.1 |
| 20260507195752 | 18 | 252 | 24.1 | 40.2 | 0.00 | 0.00 | 0.00 | 48 | 1013.1 |
| 20260507195555 | 18 | 245 | 20.9 | 32.2 | 0.00 | 0.00 | 0.00 | 55 | 1013.2 |
| 20260507195355 | 17 | 257 | 22.5 | 32.2 | 0.00 | 0.00 | 0.00 | 55 | 1013.2 |
| 20260507195158 | 17 | 281 | 24.1 | 32.2 | 0.00 | 0.00 | 0.00 | 50 | 1013.2 |
| 20260507194937 | 17 | 257 | 22.5 | 37.0 | 0.00 | 0.00 | 0.00 | 53 | 1013.2 |
| 20260507194715 | 18 | 259 | 24.1 | 37.0 | 0.00 | 0.00 | 0.00 | 49 | 1013.3 |
| 20260507194518 | 17 | 279 | 25.7 | 37.0 | 0.00 | 0.00 | 0.00 | 50 | 1013.4 |
| 20260507194318 | 17 | 244 | 25.7 | 37.0 | 0.00 | 0.00 | 0.00 | 50 | 1013.4 |
| 20260507194123 | 18 | 260 | 25.7 | 37.0 | 0.00 | 0.00 | 0.00 | 51 | 1013.4 |
| 20260507193901 | 18 | 260 | 24.1 | 37.0 | 0.00 | 0.00 | 0.00 | 52 | 1013.4 |
| 20260507193640 | 18 | 252 | 27.4 | 37.0 | 0.00 | 0.00 | 0.00 | 53 | 1013.5 |
| 20260507193443 | 17 | 238 | 27.4 | 33.8 | 0.00 | 0.00 | 0.00 | 49 | 1013.5 |
| 20260507193243 | 17 | 247 | 27.4 | 40.2 | 0.00 | 0.00 | 0.00 | 49 | 1013.5 |
| 20260507193042 | 17 | 267 | 27.4 | 40.2 | 0.00 | 0.00 | 0.00 | 49 | 1013.5 |
| 20260507192823 | 18 | 238 | 25.7 | 40.2 | 0.00 | 0.00 | 0.00 | 50 | 1013.5 |
| 20260507192602 | 18 | 243 | 25.7 | 40.2 | 0.00 | 0.00 | 0.00 | 56 | 1013.6 |
| 20260507192407 | 18 | 245 | 25.7 | 35.4 | 0.00 | 0.00 | 0.00 | 56 | 1013.6 |
| 20260507192205 | 18 | 251 | 25.7 | 33.8 | 0.00 | 0.00 | 0.00 | 51 | 1013.5 |
| 20260507191944 | 18 | 246 | 22.5 | 32.2 | 0.00 | 0.00 | 0.00 | 51 | 1013.5 |
| 20260507191747 | 17 | 276 | 20.9 | 32.2 | 0.00 | 0.00 | 0.00 | 50 | 1013.5 |
| 20260507191556 | 18 | 245 | 22.5 | 32.2 | 0.00 | 0.00 | 0.00 | 53 | 1013.6 |
| 20260507191204 | 18 | 276 | 22.5 | 33.8 | 0.00 | 0.00 | 0.00 | 49 | 1013.7 |
| 20260507191004 | 17 | 259 | 22.5 | 35.4 | 0.00 | 0.00 | 0.00 | 54 | 1013.7 |
| 20260507190746 | 17 | 256 | 24.1 | 35.4 | 0.00 | 0.00 | 0.00 | 54 | 1013.8 |
| 20260507190546 | 17 | 252 | 24.1 | 35.4 | 0.00 | 0.00 | 0.00 | 52 | 1013.7 |
| 20260507190325 | 17 | 240 | 25.7 | 35.4 | 0.00 | 0.00 | 0.00 | 51 | 1013.8 |
| 20260507190129 | 17 | 252 | 25.7 | 37.0 | 0.00 | 0.00 | 0.00 | 53 | 1013.8 |
| 20260507185928 | 17 | 269 | 25.7 | 37.0 | 0.00 | 0.00 | 0.00 | 52 | 1013.8 |
| 20260507185711 | 17 | 274 | 27.4 | 37.0 | 0.00 | 0.00 | 0.00 | 55 | 1013.8 |
| 20260507185510 | 17 | 240 | 25.7 | 40.2 | 0.00 | 0.00 | 0.00 | 54 | 1013.9 |
| 20260507185310 | 17 | 278 | 27.4 | 40.2 | 0.00 | 0.00 | 0.00 | 53 | 1013.8 |
| 20260507185115 | 17 | 259 | 25.7 | 40.2 | 0.00 | 0.00 | 0.00 | 56 | 1013.8 |
| 20260507184914 | 17 | 255 | 25.7 | 40.2 | 0.00 | 0.00 | 0.00 | 53 | 1013.9 |
| 20260507184713 | 17 | 261 | 25.7 | 40.2 | 0.00 | 0.00 | 0.00 | 55 | 1013.8 |
| 20260507184517 | 17 | 275 | 24.1 | 40.2 | 0.00 | 0.00 | 0.00 | 51 | 1013.6 |
| 20260507184317 | 17 | 276 | 22.5 | 30.6 | 0.00 | 0.00 | 0.00 | 54 | 1013.7 |
| 20260507184120 | 17 | 281 | 22.5 | 30.6 | 0.00 | 0.00 | 0.00 | 55 | 1013.8 |
| 20260507183919 | 17 | 257 | 22.5 | 37.0 | 0.00 | 0.00 | 0.00 | 54 | 1013.9 |
| 20260507183719 | 17 | 246 | 24.1 | 37.0 | 0.00 | 0.00 | 0.00 | 55 | 1013.9 |
| 20260507183524 | 17 | 259 | 27.4 | 37.0 | 0.00 | 0.00 | 0.00 | 51 | 1014.0 |
| 20260507183302 | 17 | 246 | 27.4 | 40.2 | 0.00 | 0.00 | 0.00 | 50 | 1014.0 |
| 20260507183106 | 17 | 242 | 29.0 | 40.2 | 0.00 | 0.00 | 0.00 | 53 | 1014.0 |
| 20260507182906 | 17 | 246 | 27.4 | 40.2 | 0.00 | 0.00 | 0.00 | 56 | 1013.8 |
| 20260507182706 | 17 | 256 | 27.4 | 40.2 | 0.00 | 0.00 | 0.00 | 50 | 1014.0 |
| 20260507182448 | 17 | 239 | 22.5 | 40.2 | 0.00 | 0.00 | 0.00 | 53 | 1013.9 |
| 20260507182247 | 17 | 249 | 22.5 | 35.4 | 0.00 | 0.00 | 0.00 | 54 | 1013.8 |
| 20260507182047 | 17 | 252 | 22.5 | 32.2 | 0.00 | 0.00 | 0.00 | 54 | 1013.9 |
| 20260507181851 | 17 | 262 | 24.1 | 32.2 | 0.00 | 0.00 | 0.00 | 53 | 1013.9 |
| 20260507181651 | 17 | 263 | 25.7 | 32.2 | 0.00 | 0.00 | 0.00 | 53 | 1013.9 |
| 20260507181503 | 17 | 275 | 27.4 | 37.0 | 0.00 | 0.00 | 0.00 | 53 | 1013.9 |
| 20260507181129 | 17 | 254 | 25.7 | 40.2 | 0.00 | 0.00 | 0.00 | 52 | 1014.1 |
| 20260507180932 | 17 | 259 | 24.1 | 40.2 | 0.00 | 0.00 | 0.00 | 55 | 1014.0 |
| 20260507180731 | 17 | 251 | 22.5 | 41.8 | 0.00 | 0.00 | 0.00 | 55 | 1014.1 |
| 20260507180532 | 17 | 252 | 22.5 | 41.8 | 0.00 | 0.00 | 0.00 | 56 | 1014.2 |
| 20260507180335 | 17 | 236 | 24.1 | 41.8 | 0.00 | 0.00 | 0.00 | 50 | 1014.3 |
| 20260507180135 | 17 | 266 | 24.1 | 41.8 | 0.00 | 0.00 | 0.00 | 55 | 1014.3 |
| 20260507175939 | 17 | 259 | 25.7 | 41.8 | 0.00 | 0.00 | 0.00 | 55 | 1014.3 |
| 20260507175738 | 16 | 259 | 27.4 | 41.8 | 0.00 | 0.00 | 0.00 | 53 | 1014.4 |
| 20260507175538 | 17 | 260 | 27.4 | 41.8 | 0.00 | 0.00 | 0.00 | 53 | 1014.3 |
| 20260507175319 | 17 | 259 | 27.4 | 41.8 | 0.00 | 0.00 | 0.00 | 52 | 1014.3 |
| 20260507175119 | 17 | 301 | 27.4 | 41.8 | 0.00 | 0.00 | 0.00 | 54 | 1014.4 |
| 20260507174922 | 17 | 263 | 25.7 | 48.3 | 0.00 | 0.00 | 0.00 | 54 | 1014.5 |
| 20260507174721 | 17 | 276 | 22.5 | 48.3 | 0.00 | 0.00 | 0.00 | 51 | 1014.5 |
| 20260507174521 | 16 | 279 | 24.1 | 48.3 | 0.00 | 0.00 | 0.00 | 55 | 1014.5 |
| 20260507174325 | 17 | 270 | 27.4 | 48.3 | 0.00 | 0.00 | 0.00 | 55 | 1014.5 |
| 20260507174125 | 17 | 240 | 27.4 | 48.3 | 0.00 | 0.00 | 0.00 | 52 | 1014.5 |
| 20260507173924 | 17 | 259 | 25.7 | 45.1 | 0.00 | 0.00 | 0.00 | 52 | 1014.5 |
| 20260507173726 | 17 | 267 | 24.1 | 45.1 | 0.00 | 0.00 | 0.00 | 52 | 1014.6 |
| 20260507173526 | 16 | 259 | 25.7 | 45.1 | 0.00 | 0.00 | 0.00 | 51 | 1014.6 |
| 20260507173330 | 16 | 268 | 25.7 | 45.1 | 0.00 | 0.00 | 0.00 | 52 | 1014.6 |
| 20260507173130 | 17 | 262 | 29.0 | 45.1 | 0.00 | 0.00 | 0.00 | 52 | 1014.6 |
| 20260507172930 | 16 | 261 | 25.7 | 30.6 | 0.00 | 0.00 | 0.00 | 53 | 1014.6 |
| 20260507172733 | 16 | 263 | 24.1 | 30.6 | 0.00 | 0.00 | 0.00 | 55 | 1014.6 |
| 20260507172512 | 16 | 269 | 22.5 | 30.6 | 0.00 | 0.00 | 0.00 | 53 | 1014.7 |
| 20260507172314 | 16 | 252 | 22.5 | 33.8 | 0.00 | 0.00 | 0.00 | 52 | 1014.6 |
| 20260507172053 | 16 | 260 | 20.9 | 33.8 | 0.00 | 0.00 | 0.00 | 55 | 1014.7 |
| 20260507171853 | 16 | 263 | 20.9 | 38.6 | 0.00 | 0.00 | 0.00 | 56 | 1014.7 |
| 20260507171704 | 16 | 268 | 22.5 | 38.6 | 0.00 | 0.00 | 0.00 | 56 | 1014.8 |
| 20260507171307 | 16 | 259 | 24.1 | 38.6 | 0.00 | 0.00 | 0.00 | 55 | 1014.9 |
| 20260507171110 | 16 | 250 | 24.1 | 38.6 | 0.00 | 0.00 | 0.00 | 54 | 1014.8 |
| 20260507170910 | 16 | 272 | 27.4 | 37.0 | 0.00 | 0.00 | 0.00 | 58 | 1014.8 |
| 20260507170714 | 16 | 257 | 27.4 | 40.2 | 0.00 | 0.00 | 0.00 | 53 | 1014.9 |
| 20260507170451 | 16 | 246 | 24.1 | 40.2 | 0.00 | 0.00 | 0.00 | 53 | 1015.0 |
| 20260507170250 | 16 | 251 | 22.5 | 40.2 | 0.00 | 0.00 | 0.00 | 59 | 1014.9 |
| 20260507170054 | 16 | 269 | 25.7 | 40.2 | 0.00 | 0.00 | 0.00 | 57 | 1015.0 |
| 20260507165854 | 16 | 292 | 27.4 | 37.0 | 0.00 | 0.00 | 0.00 | 57 | 1014.9 |
| 20260507165651 | 16 | 239 | 27.4 | 37.0 | 0.00 | 0.00 | 0.00 | 56 | 1015.0 |
| 20260507165455 | 16 | 250 | 27.4 | 37.0 | 0.00 | 0.00 | 0.00 | 54 | 1015.0 |
| 20260507165253 | 16 | 237 | 25.7 | 35.4 | 0.00 | 0.00 | 0.00 | 55 | 1014.9 |
| 20260507165056 | 16 | 238 | 25.7 | 35.4 | 0.00 | 0.00 | 0.00 | 54 | 1015.0 |
| 20260507164856 | 16 | 249 | 24.1 | 35.4 | 0.00 | 0.00 | 0.00 | 51 | 1015.0 |
| 20260507164656 | 16 | 242 | 25.7 | 38.6 | 0.00 | 0.00 | 0.00 | 54 | 1015.0 |
| 20260507164500 | 16 | 248 | 25.7 | 38.6 | 0.00 | 0.00 | 0.00 | 52 | 1015.1 |
| 20260507164300 | 16 | 225 | 25.7 | 45.1 | 0.00 | 0.00 | 0.00 | 52 | 1015.1 |
| 20260507164104 | 16 | 260 | 29.0 | 45.1 | 0.00 | 0.00 | 0.00 | 52 | 1015.1 |
| 20260507163902 | 16 | 243 | 29.0 | 45.1 | 0.00 | 0.00 | 0.00 | 54 | 1015.1 |
| 20260507163703 | 16 | 260 | 25.7 | 37.0 | 0.00 | 0.00 | 0.00 | 56 | 1015.2 |
| 20260507163445 | 16 | 237 | 25.7 | 37.0 | 0.00 | 0.00 | 0.00 | 52 | 1015.2 |
| 20260507163245 | 16 | 269 | 24.1 | 38.6 | 0.00 | 0.00 | 0.00 | 55 | 1015.1 |
| 20260507163045 | 16 | 286 | 24.1 | 38.6 | 0.00 | 0.00 | 0.00 | 52 | 1015.2 |
| 20260507162849 | 16 | 275 | 25.7 | 38.6 | 0.00 | 0.00 | 0.00 | 53 | 1015.2 |
| 20260507162649 | 15 | 267 | 25.7 | 38.6 | 0.00 | 0.00 | 0.00 | 54 | 1015.2 |
| 20260507162451 | 15 | 242 | 24.1 | 38.6 | 0.00 | 0.00 | 0.00 | 53 | 1015.4 |
| 20260507162230 | 15 | 246 | 22.5 | 33.8 | 0.00 | 0.00 | 0.00 | 56 | 1015.4 |
| 20260507162030 | 15 | 248 | 25.7 | 38.6 | 0.00 | 0.00 | 0.00 | 56 | 1015.4 |
| 20260507161833 | 15 | 246 | 27.4 | 38.6 | 0.00 | 0.00 | 0.00 | 54 | 1015.4 |
| 20260507161621 | 16 | 232 | 29.0 | 38.6 | 0.00 | 0.00 | 0.00 | 54 | 1015.4 |
| 20260507161250 | 15 | 257 | 27.4 | 33.8 | 0.00 | 0.00 | 0.00 | 56 | 1015.3 |
| 20260507161049 | 15 | 247 | 24.1 | 32.2 | 0.00 | 0.00 | 0.00 | 54 | 1015.5 |
| 20260507160853 | 15 | 260 | 22.5 | 32.2 | 0.00 | 0.00 | 0.00 | 53 | 1015.4 |
| 20260507160654 | 15 | 260 | 22.5 | 32.2 | 0.00 | 0.00 | 0.00 | 53 | 1015.4 |
| 20260507160452 | 15 | 256 | 22.5 | 32.2 | 0.00 | 0.00 | 0.00 | 59 | 1015.4 |
| 20260507160256 | 15 | 265 | 22.5 | 32.2 | 0.00 | 0.00 | 0.00 | 57 | 1015.5 |
| 20260507160055 | 15 | 263 | 24.1 | 33.8 | 0.00 | 0.00 | 0.00 | 54 | 1015.5 |
| 20260507155859 | 15 | 250 | 25.7 | 33.8 | 0.00 | 0.00 | 0.00 | 53 | 1015.5 |
| 20260507155638 | 15 | 262 | 27.4 | 33.8 | 0.00 | 0.00 | 0.00 | 54 | 1015.5 |
| 20260507155435 | 15 | 266 | 25.7 | 33.8 | 0.00 | 0.00 | 0.00 | 55 | 1015.4 |
| 20260507155237 | 15 | 268 | 25.7 | 33.8 | 0.00 | 0.00 | 0.00 | 55 | 1015.4 |
| 20260507155038 | 15 | 257 | 20.9 | 32.2 | 0.00 | 0.00 | 0.00 | 55 | 1015.4 |
| 20260507154813 | 15 | 272 | 20.9 | 32.2 | 0.00 | 0.00 | 0.00 | 57 | 1015.4 |
| 20260507154616 | 15 | 259 | 22.5 | 35.4 | 0.00 | 0.00 | 0.00 | 54 | 1015.5 |
| 20260507154355 | 15 | 250 | 22.5 | 35.4 | 0.00 | 0.00 | 0.00 | 58 | 1015.5 |
| 20260507154159 | 15 | 231 | 24.1 | 35.4 | 0.00 | 0.00 | 0.00 | 56 | 1015.4 |
| 20260507153957 | 15 | 272 | 24.1 | 35.4 | 0.00 | 0.00 | 0.00 | 54 | 1015.5 |
| 20260507153736 | 15 | 253 | 24.1 | 35.4 | 0.00 | 0.00 | 0.00 | 53 | 1015.5 |
| 20260507153540 | 15 | 257 | 24.1 | 32.2 | 0.00 | 0.00 | 0.00 | 54 | 1015.5 |
| 20260507153318 | 15 | 245 | 24.1 | 32.2 | 0.00 | 0.00 | 0.00 | 57 | 1015.5 |
| 20260507153121 | 15 | 268 | 22.5 | 32.2 | 0.00 | 0.00 | 0.00 | 61 | 1015.5 |
| 20260507152920 | 15 | 267 | 20.9 | 32.2 | 0.00 | 0.00 | 0.00 | 61 | 1015.5 |
| 20260507152720 | 15 | 257 | 20.9 | 32.2 | 0.00 | 0.00 | 0.00 | 59 | 1015.6 |
| 20260507152524 | 15 | 269 | 22.5 | 32.2 | 0.00 | 0.00 | 0.00 | 54 | 1015.6 |
| 20260507152324 | 15 | 265 | 22.5 | 32.2 | 0.00 | 0.00 | 0.00 | 54 | 1015.7 |
| 20260507152123 | 15 | 267 | 22.5 | 32.2 | 0.00 | 0.00 | 0.00 | 57 | 1015.7 |
| 20260507151926 | 15 | 276 | 20.9 | 32.2 | 0.00 | 0.00 | 0.00 | 56 | 1015.7 |
| 20260507151725 | 14 | 246 | 20.9 | 29.0 | 0.00 | 0.00 | 0.00 | 60 | 1015.7 |
| 20260507151536 | 14 | 246 | 20.9 | 29.0 | 0.00 | 0.00 | 0.00 | 60 | 1015.6 |
| 20260507151201 | 14 | 246 | 20.9 | 29.0 | 0.00 | 0.00 | 0.00 | 60 | 1015.8 |
| 20260507150944 | 14 | 251 | 19.3 | 29.0 | 0.00 | 0.00 | 0.00 | 56 | 1015.8 |
| 20260507150744 | 14 | 257 | 19.3 | 29.0 | 0.00 | 0.00 | 0.00 | 56 | 1015.9 |
| 20260507150544 | 14 | 244 | 19.3 | 29.0 | 0.00 | 0.00 | 0.00 | 57 | 1015.9 |
| 20260507150348 | 14 | 257 | 20.9 | 29.0 | 0.00 | 0.00 | 0.00 | 57 | 1016.0 |
| 20260507150125 | 14 | 247 | 20.9 | 27.4 | 0.00 | 0.00 | 0.00 | 56 | 1016.0 |
| 20260507145928 | 14 | 243 | 19.3 | 29.0 | 0.00 | 0.00 | 0.00 | 59 | 1016.0 |
| 20260507145728 | 14 | 262 | 20.9 | 29.0 | 0.00 | 0.00 | 0.00 | 62 | 1016.0 |
| 20260507145528 | 13 | 242 | 19.3 | 29.0 | 0.00 | 0.00 | 0.00 | 60 | 1016.0 |
| 20260507145332 | 13 | 244 | 19.3 | 29.0 | 0.00 | 0.00 | 0.00 | 59 | 1016.1 |
| 20260507145109 | 13 | 261 | 16.1 | 24.1 | 0.00 | 0.00 | 0.00 | 63 | 1016.0 |
| 20260507144914 | 13 | 263 | 16.1 | 24.1 | 0.00 | 0.00 | 0.00 | 63 | 1016.0 |
| 20260507144652 | 13 | 254 | 16.1 | 22.5 | 0.00 | 0.00 | 0.00 | 67 | 1016.0 |
| 20260507144451 | 13 | 248 | 17.7 | 24.1 | 0.00 | 0.00 | 0.00 | 67 | 1016.0 |
| 20260507144233 | 13 | 255 | 17.7 | 24.1 | 0.00 | 0.00 | 0.00 | 67 | 1016.0 |
| 20260507144034 | 13 | 252 | 17.7 | 24.1 | 0.00 | 0.00 | 0.00 | 66 | 1016.0 |
| 20260507143833 | 13 | 247 | 17.7 | 24.1 | 0.00 | 0.00 | 0.00 | 68 | 1016.0 |
| 20260507143637 | 13 | 250 | 17.7 | 25.7 | 0.00 | 0.00 | 0.00 | 64 | 1016.1 |
| 20260507143438 | 13 | 244 | 19.3 | 25.7 | 0.00 | 0.00 | 0.00 | 64 | 1016.1 |
| 20260507143242 | 13 | 259 | 19.3 | 25.7 | 0.00 | 0.00 | 0.00 | 66 | 1016.0 |
| 20260507143041 | 12 | 244 | 19.3 | 25.7 | 0.00 | 0.00 | 0.00 | 66 | 1016.2 |
| 20260507142841 | 12 | 256 | 17.7 | 25.7 | 0.00 | 0.00 | 0.00 | 66 | 1016.1 |
| 20260507142624 | 12 | 258 | 16.1 | 22.5 | 0.00 | 0.00 | 0.00 | 69 | 1016.1 |
| 20260507142424 | 12 | 255 | 16.1 | 22.5 | 0.00 | 0.00 | 0.00 | 68 | 1016.1 |
| 20260507142227 | 12 | 248 | 16.1 | 22.5 | 0.00 | 0.00 | 0.00 | 72 | 1016.0 |
| 20260507142006 | 12 | 244 | 14.5 | 22.5 | 0.00 | 0.00 | 0.00 | 69 | 1016.1 |
| 20260507141745 | 12 | 256 | 16.1 | 22.5 | 0.00 | 0.00 | 0.00 | 71 | 1016.1 |
| 20260507141555 | 12 | 238 | 14.5 | 22.5 | 0.00 | 0.00 | 0.00 | 71 | 1016.1 |
| 20260507141220 | 12 | 238 | 16.1 | 22.5 | 0.00 | 0.00 | 0.00 | 71 | 1016.2 |
| 20260507141024 | 11 | 240 | 14.5 | 20.9 | 0.00 | 0.00 | 0.00 | 70 | 1016.2 |
| 20260507140824 | 11 | 247 | 14.5 | 20.9 | 0.00 | 0.00 | 0.00 | 71 | 1016.2 |
| 20260507140628 | 11 | 242 | 14.5 | 24.1 | 0.00 | 0.00 | 0.00 | 71 | 1016.3 |
| 20260507140429 | 11 | 244 | 16.1 | 24.1 | 0.00 | 0.00 | 0.00 | 73 | 1016.4 |
| 20260507140229 | 11 | 262 | 16.1 | 24.1 | 0.00 | 0.00 | 0.00 | 72 | 1016.4 |
| 20260507140032 | 11 | 228 | 16.1 | 24.1 | 0.00 | 0.00 | 0.00 | 71 | 1016.4 |
| 20260507135832 | 11 | 257 | 16.1 | 24.1 | 0.00 | 0.00 | 0.00 | 74 | 1016.3 |
| 20260507135611 | 11 | 229 | 14.5 | 24.1 | 0.00 | 0.00 | 0.00 | 74 | 1016.4 |
| 20260507135414 | 11 | 238 | 16.1 | 24.1 | 0.00 | 0.00 | 0.00 | 73 | 1016.4 |
| 20260507135214 | 11 | 239 | 16.1 | 24.1 | 0.00 | 0.00 | 0.00 | 73 | 1016.5 |
| 20260507134956 | 10 | 242 | 16.1 | 24.1 | 0.00 | 0.00 | 0.00 | 73 | 1016.4 |
| 20260507134735 | 10 | 263 | 17.7 | 24.1 | 0.00 | 0.00 | 0.00 | 74 | 1016.5 |
| 20260507134533 | 10 | 233 | 16.1 | 20.9 | 0.00 | 0.00 | 0.00 | 73 | 1016.5 |
| 20260507134337 | 10 | 257 | 14.5 | 20.9 | 0.00 | 0.00 | 0.00 | 74 | 1016.6 |
| 20260507134116 | 10 | 244 | 12.9 | 19.3 | 0.00 | 0.00 | 0.00 | 76 | 1016.6 |
| 20260507133920 | 10 | 236 | 12.9 | 22.5 | 0.00 | 0.00 | 0.00 | 75 | 1016.6 |
| 20260507133720 | 10 | 244 | 14.5 | 22.5 | 0.00 | 0.00 | 0.00 | 76 | 1016.7 |
| 20260507133520 | 10 | 244 | 17.7 | 22.5 | 0.00 | 0.00 | 0.00 | 76 | 1016.6 |
| 20260507133323 | 10 | 252 | 16.1 | 22.5 | 0.00 | 0.00 | 0.00 | 75 | 1016.6 |
| 20260507133121 | 10 | 251 | 16.1 | 22.5 | 0.00 | 0.00 | 0.00 | 77 | 1016.7 |
| 20260507132921 | 10 | 247 | 12.9 | 20.9 | 0.00 | 0.00 | 0.00 | 77 | 1016.6 |
| 20260507132724 | 9 | 251 | 14.5 | 24.1 | 0.00 | 0.00 | 0.00 | 78 | 1016.7 |
| 20260507132503 | 9 | 257 | 16.1 | 24.1 | 0.00 | 0.00 | 0.00 | 77 | 1016.7 |
| 20260507132242 | 9 | 239 | 17.7 | 24.1 | 0.00 | 0.00 | 0.00 | 76 | 1016.7 |
| 20260507132043 | 9 | 254 | 16.1 | 24.1 | 0.00 | 0.00 | 0.00 | 77 | 1016.8 |
| 20260507131843 | 9 | 244 | 14.5 | 24.1 | 0.00 | 0.00 | 0.00 | 78 | 1016.7 |
| 20260507131646 | 9 | 246 | 12.9 | 17.7 | 0.00 | 0.00 | 0.00 | 77 | 1016.7 |
| 20260507131454 | 9 | 242 | 14.5 | 17.7 | 0.00 | 0.00 | 0.00 | 78 | 1016.7 |
| 20260507131123 | 9 | 241 | 14.5 | 17.7 | 0.00 | 0.00 | 0.00 | 79 | 1016.7 |
| 20260507130922 | 9 | 249 | 12.9 | 17.7 | 0.00 | 0.00 | 0.00 | 78 | 1016.8 |
| 20260507130727 | 9 | 250 | 12.9 | 16.1 | 0.00 | 0.00 | 0.00 | 78 | 1016.8 |
| 20260507130526 | 8 | 234 | 9.7 | 16.1 | 0.00 | 0.00 | 0.00 | 78 | 1016.7 |
| 20260507130326 | 8 | 245 | 9.7 | 16.1 | 0.00 | 0.00 | 0.00 | 80 | 1016.7 |
| 20260507130129 | 8 | 240 | 9.7 | 17.7 | 0.00 | 0.00 | 0.00 | 80 | 1016.8 |
| 20260507125930 | 8 | 243 | 11.3 | 17.7 | 0.00 | 0.00 | 0.00 | 80 | 1016.8 |
| 20260507125734 | 8 | 236 | 12.9 | 17.7 | 0.00 | 0.00 | 0.00 | 80 | 1016.8 |
| 20260507125534 | 8 | 246 | 12.9 | 19.3 | 0.00 | 0.00 | 0.00 | 80 | 1016.6 |
| 20260507125334 | 8 | 252 | 12.9 | 19.3 | 0.00 | 0.00 | 0.00 | 80 | 1016.6 |
| 20260507125136 | 8 | 245 | 12.9 | 19.3 | 0.00 | 0.00 | 0.00 | 80 | 1016.6 |
| 20260507124936 | 8 | 238 | 12.9 | 19.3 | 0.00 | 0.00 | 0.00 | 80 | 1016.7 |
| 20260507124736 | 8 | 237 | 12.9 | 19.3 | 0.00 | 0.00 | 0.00 | 80 | 1016.6 |
| 20260507124540 | 8 | 244 | 12.9 | 19.3 | 0.00 | 0.00 | 0.00 | 81 | 1016.5 |
| 20260507124338 | 8 | 254 | 12.9 | 19.3 | 0.00 | 0.00 | 0.00 | 80 | 1016.5 |
| 20260507124142 | 8 | 258 | 14.5 | 19.3 | 0.00 | 0.00 | 0.00 | 81 | 1016.6 |
| 20260507123942 | 7 | 244 | 12.9 | 19.3 | 0.00 | 0.00 | 0.00 | 82 | 1016.5 |
| 20260507123742 | 7 | 252 | 11.3 | 17.7 | 0.00 | 0.00 | 0.00 | 81 | 1016.5 |
| 20260507123546 | 7 | 251 | 9.7 | 16.1 | 0.00 | 0.00 | 0.00 | 82 | 1016.4 |
| 20260507123346 | 7 | 241 | 9.7 | 16.1 | 0.00 | 0.00 | 0.00 | 82 | 1016.4 |
| 20260507123149 | 7 | 252 | 9.7 | 17.7 | 0.00 | 0.00 | 0.00 | 83 | 1016.4 |
| 20260507122949 | 7 | 243 | 11.3 | 17.7 | 0.00 | 0.00 | 0.00 | 83 | 1016.4 |
| 20260507122746 | 7 | 248 | 9.7 | 17.7 | 0.00 | 0.00 | 0.00 | 82 | 1016.4 |
| 20260507122528 | 7 | 244 | 11.3 | 17.7 | 0.00 | 0.00 | 0.00 | 83 | 1016.3 |
| 20260507122327 | 7 | 255 | 11.3 | 16.1 | 0.00 | 0.00 | 0.00 | 83 | 1016.4 |
| 20260507122128 | 7 | 250 | 9.7 | 14.5 | 0.00 | 0.00 | 0.00 | 83 | 1016.3 |
| 20260507121910 | 7 | 250 | 9.7 | 16.1 | 0.00 | 0.00 | 0.00 | 83 | 1016.3 |
| 20260507121649 | 7 | 231 | 8.0 | 16.1 | 0.00 | 0.00 | 0.00 | 84 | 1016.2 |
| 20260507121501 | 6 | 237 | 8.0 | 16.1 | 0.00 | 0.00 | 0.00 | 84 | 1016.1 |
| 20260507121125 | 6 | 236 | 8.0 | 16.1 | 0.00 | 0.00 | 0.00 | 84 | 1016.1 |
| 20260507120929 | 6 | 235 | 8.0 | 12.9 | 0.00 | 0.00 | 0.00 | 84 | 1016.1 |
| 20260507120708 | 6 | 229 | 8.0 | 12.9 | 0.00 | 0.00 | 0.00 | 84 | 1016.1 |
| 20260507120508 | 6 | 239 | 8.0 | 11.3 | 0.00 | 0.00 | 0.00 | 84 | 1016.1 |
| 20260507120312 | 6 | 236 | 8.0 | 11.3 | 0.00 | 0.00 | 0.00 | 85 | 1016.0 |
| 20260507120051 | 6 | 231 | 8.0 | 11.3 | 0.00 | 0.00 | 0.00 | 85 | 1016.0 |
| 20260507115854 | 6 | 233 | 8.0 | 11.3 | 0.00 | 0.00 | 0.00 | 85 | 1016.0 |
| 20260507115653 | 6 | 240 | 6.4 | 9.7 | 0.00 | 0.00 | 0.00 | 85 | 1016.0 |
| 20260507115453 | 6 | 232 | 8.0 | 11.3 | 0.00 | 0.00 | 0.00 | 85 | 1016.0 |
| 20260507115253 | 6 | 224 | 8.0 | 11.3 | 0.00 | 0.00 | 0.00 | 85 | 1016.0 |
| 20260507115053 | 6 | 236 | 8.0 | 11.3 | 0.00 | 0.00 | 0.00 | 85 | 1016.0 |
| 20260507114856 | 6 | 234 | 8.0 | 11.3 | 0.00 | 0.00 | 0.00 | 85 | 1015.9 |
| 20260507114656 | 6 | 235 | 8.0 | 11.3 | 0.00 | 0.00 | 0.00 | 85 | 1015.9 |
| 20260507114456 | 6 | 236 | 8.0 | 11.3 | 0.00 | 0.00 | 0.00 | 86 | 1015.9 |
| 20260507114300 | 6 | 225 | 6.4 | 9.7 | 0.00 | 0.00 | 0.00 | 86 | 1016.0 |
| 20260507114100 | 5 | 236 | 6.4 | 9.7 | 0.00 | 0.00 | 0.00 | 86 | 1016.0 |
| 20260507113859 | 5 | 238 | 6.4 | 11.3 | 0.00 | 0.00 | 0.00 | 86 | 1016.0 |
| 20260507113703 | 5 | 226 | 6.4 | 11.3 | 0.00 | 0.00 | 0.00 | 87 | 1016.0 |
| 20260507113442 | 5 | 236 | 4.8 | 8.0 | 0.00 | 0.00 | 0.00 | 87 | 1016.0 |
| 20260507113246 | 5 | 236 | 4.8 | 8.0 | 0.00 | 0.00 | 0.00 | 87 | 1016.0 |
| 20260507113046 | 5 | 236 | 3.2 | 8.0 | 0.00 | 0.00 | 0.00 | 87 | 1016.0 |
| 20260507112846 | 5 | 236 | 1.6 | 4.8 | 0.00 | 0.00 | 0.00 | 87 | 1015.9 |
| 20260507112650 | 5 | 236 | 0.0 | 0.0 | 0.00 | 0.00 | 0.00 | 87 | 1015.9 |
| 20260507112450 | 5 | 236 | 0.0 | 0.0 | 0.00 | 0.00 | 0.00 | 87 | 1015.9 |
| 20260507112254 | 5 | 236 | 0.0 | 0.0 | 0.00 | 0.00 | 0.00 | 87 | 1015.9 |
| 20260507112053 | 5 | 236 | 0.0 | 0.0 | 0.00 | 0.00 | 0.00 | 86 | 1016.0 |
| 20260507111853 | 5 | 236 | 0.0 | 0.0 | 0.00 | 0.00 | 0.00 | 86 | 1016.0 |
| 20260507111705 | 5 | 236 | 0.0 | 0.0 | 0.00 | 0.00 | 0.00 | 86 | 1016.0 |
| 20260507111309 | 5 | 236 | 0.0 | 0.0 | 0.00 | 0.00 | 0.00 | 86 | 1015.9 |
| 20260507111112 | 5 | 236 | 0.0 | 0.0 | 0.00 | 0.00 | 0.00 | 86 | 1016.0 |
| 20260507110913 | 5 | 236 | 0.0 | 0.0 | 0.00 | 0.00 | 0.00 | 86 | 1015.9 |
| 20260507110716 | 5 | 236 | 0.0 | 0.0 | 0.00 | 0.00 | 0.00 | 86 | 1015.9 |
| 20260507110516 | 5 | 236 | 0.0 | 0.0 | 0.00 | 0.00 | 0.00 | 86 | 1015.9 |
| 20260507110255 | 5 | 236 | 0.0 | 0.0 | 0.00 | 0.00 | 0.00 | 86 | 1015.9 |
| 20260507110038 | 5 | 236 | 0.0 | 0.0 | 0.00 | 0.00 | 0.00 | 86 | 1015.9 |
| 20260507105838 | 5 | 236 | 0.0 | 0.0 | 0.00 | 0.00 | 0.00 | 86 | 1015.9 |
| 20260507105637 | 5 | 236 | 0.0 | 0.0 | 0.00 | 0.00 | 0.00 | 86 | 1015.9 |
| 20260507105442 | 5 | 236 | 0.0 | 0.0 | 0.00 | 0.00 | 0.00 | 86 | 1015.9 |
| 20260507105241 | 5 | 236 | 0.0 | 0.0 | 0.00 | 0.00 | 0.00 | 86 | 1015.9 |
| 20260507105044 | 5 | 236 | 0.0 | 0.0 | 0.00 | 0.00 | 0.00 | 86 | 1015.9 |
| 20260507104844 | 5 | 236 | 0.0 | 0.0 | 0.00 | 0.00 | 0.00 | 86 | 1015.9 |
| 20260507104623 | 5 | 236 | 0.0 | 0.0 | 0.00 | 0.00 | 0.00 | 86 | 1016.0 |
| 20260507104405 | 5 | 236 | 0.0 | 1.6 | 0.00 | 0.00 | 0.00 | 86 | 1016.0 |
| 20260507104205 | 5 | 236 | 0.0 | 1.6 | 0.00 | 0.00 | 0.00 | 86 | 1016.0 |
| 20260507104008 | 5 | 236 | 0.0 | 1.6 | 0.00 | 0.00 | 0.00 | 86 | 1016.0 |
| 20260507103808 | 5 | 236 | 0.0 | 3.2 | 0.00 | 0.00 | 0.00 | 86 | 1016.0 |
| 20260507103608 | 5 | 236 | 1.6 | 3.2 | 0.00 | 0.00 | 0.00 | 86 | 1016.0 |
| 20260507103412 | 5 | 236 | 1.6 | 3.2 | 0.00 | 0.00 | 0.00 | 86 | 1016.0 |
| 20260507103212 | 5 | 236 | 1.6 | 3.2 | 0.00 | 0.00 | 0.00 | 86 | 1016.0 |
| 20260507103012 | 5 | 236 | 1.6 | 3.2 | 0.00 | 0.00 | 0.00 | 86 | 1016.0 |
| 20260507102815 | 5 | 236 | 1.6 | 3.2 | 0.00 | 0.00 | 0.00 | 86 | 1016.0 |
| 20260507102614 | 5 | 236 | 1.6 | 3.2 | 0.00 | 0.00 | 0.00 | 86 | 1016.0 |
| 20260507102419 | 5 | 236 | 3.2 | 4.8 | 0.00 | 0.00 | 0.00 | 87 | 1016.0 |
| 20260507102218 | 5 | 236 | 3.2 | 4.8 | 0.00 | 0.00 | 0.00 | 86 | 1016.0 |
| 20260507102018 | 5 | 236 | 3.2 | 4.8 | 0.00 | 0.00 | 0.00 | 87 | 1016.0 |
| 20260507101821 | 5 | 236 | 3.2 | 4.8 | 0.00 | 0.00 | 0.00 | 87 | 1016.0 |
| 20260507101628 | 5 | 236 | 3.2 | 4.8 | 0.00 | 0.00 | 0.00 | 87 | 1016.0 |
| 20260507101257 | 5 | 236 | 3.2 | 4.8 | 0.00 | 0.00 | 0.00 | 86 | 1016.1 |
| 20260507101057 | 5 | 236 | 3.2 | 4.8 | 0.00 | 0.00 | 0.00 | 86 | 1016.1 |
| 20260507100900 | 5 | 236 | 3.2 | 4.8 | 0.00 | 0.00 | 0.00 | 86 | 1016.1 |
| 20260507100638 | 5 | 236 | 3.2 | 4.8 | 0.00 | 0.00 | 0.00 | 86 | 1016.1 |
| 20260507100438 | 5 | 236 | 3.2 | 4.8 | 0.00 | 0.00 | 0.00 | 86 | 1016.0 |
| 20260507100242 | 5 | 236 | 3.2 | 4.8 | 0.00 | 0.00 | 0.00 | 86 | 1016.0 |
| 20260507100040 | 5 | 236 | 1.6 | 4.8 | 0.00 | 0.00 | 0.00 | 86 | 1016.0 |
| 20260507095823 | 5 | 236 | 1.6 | 4.8 | 0.00 | 0.00 | 0.00 | 86 | 1016.0 |
| 20260507095622 | 5 | 236 | 1.6 | 4.8 | 0.00 | 0.00 | 0.00 | 86 | 1015.9 |
| 20260507095422 | 5 | 236 | 1.6 | 4.8 | 0.00 | 0.00 | 0.00 | 86 | 1015.9 |
| 20260507095228 | 5 | 236 | 1.6 | 4.8 | 0.00 | 0.00 | 0.00 | 86 | 1015.9 |
| 20260507095027 | 5 | 236 | 3.2 | 4.8 | 0.00 | 0.00 | 0.00 | 86 | 1015.9 |
| 20260507094827 | 5 | 236 | 3.2 | 4.8 | 0.00 | 0.00 | 0.00 | 86 | 1015.9 |
| 20260507094631 | 5 | 236 | 3.2 | 4.8 | 0.00 | 0.00 | 0.00 | 86 | 1016.0 |
| 20260507094431 | 5 | 236 | 3.2 | 4.8 | 0.00 | 0.00 | 0.00 | 86 | 1016.0 |
| 20260507094214 | 5 | 236 | 3.2 | 4.8 | 0.00 | 0.00 | 0.00 | 87 | 1015.9 |
| 20260507094013 | 5 | 236 | 1.6 | 4.8 | 0.00 | 0.00 | 0.00 | 86 | 1016.0 |
| 20260507093813 | 5 | 236 | 3.2 | 4.8 | 0.00 | 0.00 | 0.00 | 86 | 1015.9 |
| 20260507093556 | 5 | 236 | 3.2 | 4.8 | 0.00 | 0.00 | 0.00 | 86 | 1015.9 |
| 20260507093355 | 5 | 236 | 3.2 | 4.8 | 0.00 | 0.00 | 0.00 | 86 | 1015.9 |
| 20260507093159 | 5 | 236 | 3.2 | 4.8 | 0.00 | 0.00 | 0.00 | 86 | 1015.9 |
| 20260507092954 | 5 | 236 | 3.2 | 4.8 | 0.00 | 0.00 | 0.00 | 86 | 1015.9 |
| 20260507092748 | 5 | 236 | 3.2 | 4.8 | 0.00 | 0.00 | 0.00 | 86 | 1015.9 |
| 20260507092553 | 6 | 236 | 3.2 | 3.2 | 0.00 | 0.00 | 0.00 | 85 | 1015.9 |
| 20260507092351 | 6 | 236 | 3.2 | 3.2 | 0.00 | 0.00 | 0.00 | 85 | 1015.9 |
| 20260507092130 | 6 | 236 | 3.2 | 3.2 | 0.00 | 0.00 | 0.00 | 85 | 1015.9 |
| 20260507091933 | 6 | 236 | 1.6 | 4.8 | 0.00 | 0.00 | 0.00 | 85 | 1015.8 |
| 20260507091733 | 6 | 236 | 1.6 | 4.8 | 0.00 | 0.00 | 0.00 | 84 | 1015.9 |
| 20260507091543 | 6 | 236 | 3.2 | 4.8 | 0.00 | 0.00 | 0.00 | 84 | 1015.9 |
| 20260507091208 | 6 | 236 | 1.6 | 4.8 | 0.00 | 0.00 | 0.00 | 84 | 1015.9 |
| 20260507091012 | 6 | 236 | 3.2 | 4.8 | 0.00 | 0.00 | 0.00 | 84 | 1015.9 |
| 20260507090812 | 6 | 236 | 3.2 | 6.4 | 0.00 | 0.00 | 0.00 | 83 | 1015.9 |
| 20260507090612 | 6 | 236 | 3.2 | 6.4 | 0.00 | 0.00 | 0.00 | 83 | 1015.9 |
| 20260507090415 | 6 | 236 | 3.2 | 6.4 | 0.00 | 0.00 | 0.00 | 83 | 1015.9 |
| 20260507090153 | 6 | 236 | 3.2 | 8.0 | 0.00 | 0.00 | 0.00 | 82 | 1015.9 |
| 20260507085957 | 6 | 236 | 3.2 | 8.0 | 0.00 | 0.00 | 0.00 | 82 | 1015.9 |
| 20260507085758 | 6 | 236 | 4.8 | 8.0 | 0.00 | 0.00 | 0.00 | 81 | 1015.9 |
| 20260507085557 | 6 | 236 | 6.4 | 8.0 | 0.00 | 0.00 | 0.00 | 81 | 1015.9 |
| 20260507085401 | 6 | 236 | 6.4 | 8.0 | 0.00 | 0.00 | 0.00 | 80 | 1015.9 |
| 20260507085201 | 6 | 235 | 6.4 | 11.3 | 0.00 | 0.00 | 0.00 | 80 | 1015.9 |
| 20260507085004 | 7 | 235 | 4.8 | 11.3 | 0.00 | 0.00 | 0.00 | 80 | 1015.9 |
| 20260507084804 | 7 | 235 | 4.8 | 11.3 | 0.00 | 0.00 | 0.00 | 80 | 1015.9 |
| 20260507084543 | 7 | 235 | 6.4 | 11.3 | 0.00 | 0.00 | 0.00 | 80 | 1015.9 |
| 20260507084346 | 7 | 235 | 6.4 | 11.3 | 0.00 | 0.00 | 0.00 | 79 | 1015.9 |
| 20260507084145 | 7 | 235 | 6.4 | 9.7 | 0.00 | 0.00 | 0.00 | 79 | 1015.9 |
| 20260507083945 | 7 | 229 | 6.4 | 8.0 | 0.00 | 0.00 | 0.00 | 79 | 1015.9 |
| 20260507083749 | 7 | 229 | 6.4 | 9.7 | 0.00 | 0.00 | 0.00 | 79 | 1015.9 |
| 20260507083550 | 7 | 229 | 6.4 | 9.7 | 0.00 | 0.00 | 0.00 | 79 | 1015.9 |
| 20260507083354 | 7 | 229 | 6.4 | 9.7 | 0.00 | 0.00 | 0.00 | 80 | 1015.9 |
| 20260507083154 | 7 | 229 | 6.4 | 9.7 | 0.00 | 0.00 | 0.00 | 81 | 1015.9 |
| 20260507082954 | 7 | 229 | 6.4 | 8.0 | 0.00 | 0.00 | 0.00 | 81 | 1015.8 |
| 20260507082759 | 7 | 233 | 4.8 | 8.0 | 0.00 | 0.00 | 0.00 | 81 | 1015.9 |
| 20260507082559 | 6 | 231 | 4.8 | 8.0 | 0.00 | 0.00 | 0.00 | 83 | 1015.9 |
| 20260507082403 | 6 | 231 | 3.2 | 4.8 | 0.00 | 0.00 | 0.00 | 83 | 1015.9 |
| 20260507082142 | 6 | 231 | 3.2 | 4.8 | 0.00 | 0.00 | 0.00 | 83 | 1015.9 |
| 20260507081920 | 7 | 231 | 3.2 | 4.8 | 0.00 | 0.00 | 0.00 | 84 | 1015.9 |
| 20260507081724 | 7 | 231 | 3.2 | 8.0 | 0.00 | 0.00 | 0.00 | 84 | 1015.9 |
| 20260507081510 | 7 | 231 | 3.2 | 8.0 | 0.00 | 0.00 | 0.00 | 84 | 1015.9 |
| 20260507081139 | 7 | 231 | 3.2 | 8.0 | 0.00 | 0.00 | 0.00 | 83 | 1015.9 |
| 20260507080939 | 7 | 231 | 4.8 | 8.0 | 0.00 | 0.00 | 0.00 | 81 | 1016.0 |
| 20260507080743 | 7 | 231 | 6.4 | 11.3 | 0.00 | 0.00 | 0.00 | 81 | 1016.0 |
| 20260507080542 | 7 | 231 | 6.4 | 11.3 | 0.00 | 0.00 | 0.00 | 81 | 1016.0 |
| 20260507080342 | 7 | 231 | 6.4 | 11.3 | 0.00 | 0.00 | 0.00 | 83 | 1016.1 |
| 20260507080124 | 7 | 236 | 6.4 | 11.3 | 0.00 | 0.00 | 0.00 | 83 | 1016.1 |
| 20260507075924 | 7 | 236 | 8.0 | 11.3 | 0.00 | 0.00 | 0.00 | 83 | 1016.1 |
| 20260507075724 | 7 | 237 | 6.4 | 9.7 | 0.00 | 0.00 | 0.00 | 83 | 1016.1 |
| 20260507075528 | 7 | 281 | 6.4 | 9.7 | 0.00 | 0.00 | 0.00 | 85 | 1016.1 |
| 20260507075327 | 7 | 281 | 6.4 | 8.0 | 0.00 | 0.00 | 0.00 | 85 | 1016.2 |
| 20260507075132 | 7 | 281 | 6.4 | 9.7 | 0.00 | 0.00 | 0.00 | 85 | 1016.2 |
| 20260507074932 | 6 | 281 | 6.4 | 9.7 | 0.00 | 0.00 | 0.00 | 86 | 1016.1 |
| 20260507074731 | 6 | 281 | 4.8 | 6.4 | 0.00 | 0.00 | 0.00 | 87 | 1016.1 |
| 20260507074536 | 6 | 281 | 4.8 | 6.4 | 0.00 | 0.00 | 0.00 | 87 | 1016.1 |
| 20260507074336 | 6 | 281 | 3.2 | 4.8 | 0.00 | 0.00 | 0.00 | 87 | 1016.2 |
| 20260507074139 | 6 | 281 | 3.2 | 4.8 | 0.00 | 0.00 | 0.00 | 87 | 1016.2 |
| 20260507073939 | 6 | 281 | 3.2 | 4.8 | 0.00 | 0.00 | 0.00 | 87 | 1016.3 |
| 20260507073718 | 6 | 281 | 4.8 | 6.4 | 0.00 | 0.00 | 0.00 | 87 | 1016.3 |
| 20260507073521 | 6 | 281 | 4.8 | 6.4 | 0.00 | 0.00 | 0.00 | 87 | 1016.3 |
| 20260507073320 | 6 | 281 | 4.8 | 6.4 | 0.00 | 0.00 | 0.00 | 87 | 1016.3 |
| 20260507073120 | 6 | 281 | 4.8 | 6.4 | 0.00 | 0.00 | 0.00 | 87 | 1016.4 |
| 20260507072903 | 6 | 281 | 4.8 | 6.4 | 0.00 | 0.00 | 0.00 | 87 | 1016.4 |
| 20260507072703 | 6 | 281 | 4.8 | 6.4 | 0.00 | 0.00 | 0.00 | 88 | 1016.4 |
| 20260507072506 | 6 | 281 | 4.8 | 6.4 | 0.00 | 0.00 | 0.00 | 88 | 1016.4 |
| 20260507072308 | 6 | 281 | 4.8 | 6.4 | 0.00 | 0.00 | 0.00 | 87 | 1016.4 |
| 20260507072106 | 6 | 281 | 4.8 | 6.4 | 0.00 | 0.00 | 0.00 | 87 | 1016.4 |
| 20260507071909 | 6 | 281 | 4.8 | 6.4 | 0.00 | 0.00 | 0.00 | 88 | 1016.4 |
| 20260507071709 | 6 | 281 | 4.8 | 8.0 | 0.00 | 0.00 | 0.00 | 88 | 1016.4 |
| 20260507071522 | 6 | 281 | 4.8 | 8.0 | 0.00 | 0.00 | 0.00 | 88 | 1016.5 |
| 20260507071146 | 6 | 281 | 3.2 | 6.4 | 0.00 | 0.00 | 0.00 | 88 | 1016.4 |
| 20260507070929 | 6 | 281 | 3.2 | 4.8 | 0.00 | 0.00 | 0.00 | 88 | 1016.4 |
| 20260507070728 | 6 | 281 | 1.6 | 4.8 | 0.00 | 0.00 | 0.00 | 88 | 1016.4 |
| 20260507070507 | 6 | 281 | 1.6 | 3.2 | 0.00 | 0.00 | 0.00 | 88 | 1016.5 |
| 20260507070311 | 6 | 281 | 1.6 | 4.8 | 0.00 | 0.00 | 0.00 | 88 | 1016.5 |
| 20260507070111 | 6 | 281 | 1.6 | 4.8 | 0.00 | 0.00 | 0.00 | 88 | 1016.5 |
| 20260507065914 | 6 | 281 | 1.6 | 4.8 | 0.00 | 0.00 | 0.00 | 88 | 1016.5 |
| 20260507065714 | 6 | 281 | 3.2 | 4.8 | 0.00 | 0.00 | 0.00 | 88 | 1016.6 |
| 20260507065514 | 6 | 281 | 3.2 | 4.8 | 0.00 | 0.00 | 0.00 | 88 | 1016.6 |
| 20260507065255 | 6 | 281 | 3.2 | 4.8 | 0.00 | 0.00 | 0.00 | 88 | 1016.6 |
| 20260507065056 | 6 | 360 | 3.2 | 4.8 | 0.00 | 0.00 | 0.00 | 88 | 1016.7 |
| 20260507064856 | 6 | 360 | 3.2 | 4.8 | 0.00 | 0.00 | 0.00 | 88 | 1016.7 |
| 20260507064659 | 6 | 360 | 3.2 | 4.8 | 0.00 | 0.00 | 0.00 | 88 | 1016.7 |
| 20260507064500 | 6 | 360 | 3.2 | 4.8 | 0.00 | 0.00 | 0.00 | 87 | 1016.7 |
| 20260507064304 | 6 | 360 | 3.2 | 4.8 | 0.00 | 0.00 | 0.00 | 87 | 1016.7 |
| 20260507064044 | 6 | 360 | 3.2 | 4.8 | 0.00 | 0.00 | 0.00 | 87 | 1016.8 |
| 20260507063844 | 6 | 360 | 3.2 | 4.8 | 0.00 | 0.00 | 0.00 | 86 | 1016.8 |
| 20260507063626 | 6 | 360 | 4.8 | 4.8 | 0.00 | 0.00 | 0.00 | 86 | 1016.7 |
| 20260507063405 | 6 | 360 | 3.2 | 4.8 | 0.00 | 0.00 | 0.00 | 85 | 1016.7 |
| 20260507063209 | 6 | 360 | 3.2 | 4.8 | 0.00 | 0.00 | 0.00 | 85 | 1016.7 |
| 20260507063009 | 6 | 360 | 3.2 | 4.8 | 0.00 | 0.00 | 0.00 | 85 | 1016.7 |
| 20260507062747 | 6 | 360 | 3.2 | 4.8 | 0.00 | 0.00 | 0.00 | 85 | 1016.7 |
| 20260507062551 | 6 | 360 | 3.2 | 4.8 | 0.00 | 0.00 | 0.00 | 85 | 1016.7 |
| 20260507062351 | 6 | 360 | 3.2 | 4.8 | 0.00 | 0.00 | 0.00 | 85 | 1016.7 |
| 20260507062150 | 6 | 360 | 1.6 | 4.8 | 0.00 | 0.00 | 0.00 | 84 | 1016.8 |
| 20260507061953 | 6 | 360 | 3.2 | 4.8 | 0.00 | 0.00 | 0.00 | 84 | 1016.8 |
| 20260507061753 | 6 | 360 | 3.2 | 4.8 | 0.00 | 0.00 | 0.00 | 84 | 1016.8 |
| 20260507061606 | 6 | 360 | 3.2 | 4.8 | 0.00 | 0.00 | 0.00 | 84 | 1016.8 |
| 20260507061231 | 6 | 360 | 3.2 | 4.8 | 0.00 | 0.00 | 0.00 | 84 | 1016.8 |
| 20260507061013 | 6 | 360 | 3.2 | 4.8 | 0.00 | 0.00 | 0.00 | 84 | 1016.8 |
| 20260507060813 | 6 | 360 | 3.2 | 4.8 | 0.00 | 0.00 | 0.00 | 84 | 1016.7 |
| 20260507060613 | 6 | 360 | 3.2 | 3.2 | 0.00 | 0.00 | 0.00 | 84 | 1016.7 |
| 20260507060417 | 6 | 360 | 1.6 | 4.8 | 0.00 | 0.00 | 0.00 | 84 | 1016.7 |
| 20260507060217 | 6 | 360 | 1.6 | 4.8 | 0.00 | 0.00 | 0.00 | 84 | 1016.7 |
| 20260507060021 | 6 | 360 | 1.6 | 4.8 | 0.00 | 0.00 | 0.00 | 84 | 1016.7 |
| 20260507055821 | 6 | 360 | 3.2 | 4.8 | 0.00 | 0.00 | 0.00 | 84 | 1016.7 |
| 20260507055619 | 6 | 360 | 1.6 | 4.8 | 0.00 | 0.00 | 0.00 | 85 | 1016.7 |
| 20260507055423 | 6 | 360 | 1.6 | 4.8 | 0.00 | 0.00 | 0.00 | 85 | 1016.7 |
| 20260507055202 | 6 | 360 | 0.0 | 4.8 | 0.00 | 0.00 | 0.00 | 86 | 1016.7 |
| 20260507055006 | 6 | 360 | 0.0 | 1.6 | 0.00 | 0.00 | 0.00 | 86 | 1016.7 |
| 20260507054804 | 6 | 360 | 0.0 | 0.0 | 0.00 | 0.00 | 0.00 | 87 | 1016.7 |
| 20260507054604 | 6 | 360 | 0.0 | 0.0 | 0.00 | 0.00 | 0.00 | 87 | 1016.7 |
| 20260507054407 | 6 | 360 | 0.0 | 0.0 | 0.00 | 0.00 | 0.00 | 87 | 1016.7 |
| 20260507054208 | 6 | 360 | 0.0 | 0.0 | 0.00 | 0.00 | 0.00 | 87 | 1016.7 |
| 20260507053946 | 6 | 360 | 0.0 | 0.0 | 0.00 | 0.00 | 0.00 | 87 | 1016.7 |
| 20260507053749 | 6 | 360 | 0.0 | 0.0 | 0.00 | 0.00 | 0.00 | 87 | 1016.7 |
| 20260507053549 | 6 | 360 | 0.0 | 0.0 | 0.00 | 0.00 | 0.00 | 87 | 1016.7 |
| 20260507053353 | 6 | 360 | 0.0 | 0.0 | 0.00 | 0.00 | 0.00 | 88 | 1016.8 |
| 20260507053153 | 6 | 360 | 0.0 | 0.0 | 0.00 | 0.00 | 0.00 | 88 | 1016.9 |
| 20260507052953 | 6 | 360 | 0.0 | 0.0 | 0.00 | 0.00 | 0.00 | 88 | 1016.9 |
| 20260507052756 | 6 | 360 | 0.0 | 0.0 | 0.00 | 0.00 | 0.00 | 88 | 1016.8 |
| 20260507052556 | 6 | 360 | 0.0 | 0.0 | 0.00 | 0.00 | 0.00 | 88 | 1016.8 |
| 20260507052359 | 6 | 360 | 0.0 | 0.0 | 0.00 | 0.00 | 0.00 | 88 | 1016.9 |
| 20260507052159 | 6 | 360 | 0.0 | 0.0 | 0.00 | 0.00 | 0.00 | 87 | 1016.9 |
| 20260507051937 | 6 | 360 | 0.0 | 0.0 | 0.00 | 0.00 | 0.00 | 87 | 1017.0 |
| 20260507051741 | 6 | 360 | 0.0 | 0.0 | 0.00 | 0.00 | 0.00 | 87 | 1017.0 |
| 20260507051549 | 6 | 360 | 0.0 | 0.0 | 0.00 | 0.00 | 0.00 | 87 | 1017.0 |
| 20260507051218 | 6 | 360 | 0.0 | 0.0 | 0.00 | 0.00 | 0.00 | 87 | 1016.9 |
| 20260507050957 | 6 | 360 | 0.0 | 0.0 | 0.00 | 0.00 | 0.00 | 86 | 1017.0 |
| 20260507050801 | 6 | 360 | 0.0 | 0.0 | 0.00 | 0.00 | 0.00 | 86 | 1016.9 |
| 20260507050601 | 6 | 360 | 0.0 | 0.0 | 0.00 | 0.00 | 0.00 | 85 | 1016.9 |
| 20260507050400 | 6 | 360 | 0.0 | 0.0 | 0.00 | 0.00 | 0.00 | 85 | 1016.9 |
| 20260507050204 | 6 | 360 | 0.0 | 0.0 | 0.00 | 0.00 | 0.00 | 85 | 1016.9 |
| 20260507050005 | 6 | 360 | 0.0 | 0.0 | 0.00 | 0.00 | 0.00 | 84 | 1016.9 |
| 20260507045743 | 6 | 360 | 0.0 | 0.0 | 0.00 | 0.00 | 0.00 | 85 | 1016.8 |
| 20260507045547 | 6 | 360 | 0.0 | 3.2 | 0.00 | 0.00 | 0.00 | 84 | 1016.8 |
| 20260507045347 | 6 | 360 | 0.0 | 3.2 | 0.00 | 0.00 | 0.00 | 84 | 1016.8 |
| 20260507045149 | 6 | 360 | 0.0 | 3.2 | 0.00 | 0.00 | 0.00 | 85 | 1016.8 |
| 20260507044928 | 6 | 360 | 0.0 | 3.2 | 0.00 | 0.00 | 0.00 | 85 | 1016.8 |
| 20260507044727 | 6 | 360 | 0.0 | 3.2 | 0.00 | 0.00 | 0.00 | 85 | 1016.8 |
| 20260507044510 | 6 | 360 | 0.0 | 0.0 | 0.00 | 0.00 | 0.00 | 85 | 1016.7 |
| 20260507044308 | 6 | 360 | 0.0 | 0.0 | 0.00 | 0.00 | 0.00 | 86 | 1016.8 |
| 20260507044112 | 6 | 360 | 0.0 | 0.0 | 0.00 | 0.00 | 0.00 | 86 | 1016.8 |
| 20260507043912 | 6 | 360 | 0.0 | 0.0 | 0.00 | 0.00 | 0.00 | 86 | 1016.8 |
| 20260507043712 | 6 | 360 | 0.0 | 0.0 | 0.00 | 0.00 | 0.00 | 86 | 1016.8 |
| 20260507043455 | 6 | 360 | 0.0 | 0.0 | 0.00 | 0.00 | 0.00 | 87 | 1016.8 |
| 20260507043254 | 6 | 360 | 0.0 | 0.0 | 0.00 | 0.00 | 0.00 | 86 | 1016.9 |
| 20260507043055 | 6 | 360 | 0.0 | 0.0 | 0.00 | 0.00 | 0.00 | 86 | 1016.9 |
| 20260507042838 | 6 | 360 | 0.0 | 0.0 | 0.00 | 0.00 | 0.00 | 85 | 1016.9 |
| 20260507042638 | 6 | 360 | 0.0 | 0.0 | 0.00 | 0.00 | 0.00 | 85 | 1016.9 |
| 20260507042421 | 7 | 360 | 0.0 | 0.0 | 0.00 | 0.00 | 0.00 | 85 | 1016.9 |
| 20260507042220 | 7 | 360 | 0.0 | 0.0 | 0.00 | 0.00 | 0.00 | 85 | 1016.9 |
| 20260507041959 | 7 | 360 | 0.0 | 0.0 | 0.00 | 0.00 | 0.00 | 85 | 1016.9 |
| 20260507041803 | 7 | 360 | 0.0 | 0.0 | 0.00 | 0.00 | 0.00 | 85 | 1016.9 |
| 20260507041550 | 7 | 360 | 0.0 | 0.0 | 0.00 | 0.00 | 0.00 | 83 | 1016.9 |
| 20260507041218 | 7 | 360 | 0.0 | 0.0 | 0.00 | 0.00 | 0.00 | 83 | 1016.9 |
| 20260507041018 | 7 | 360 | 0.0 | 0.0 | 0.00 | 0.00 | 0.00 | 84 | 1016.9 |
| 20260507040801 | 7 | 360 | 0.0 | 0.0 | 0.00 | 0.00 | 0.00 | 84 | 1016.9 |
| 20260507040601 | 7 | 360 | 0.0 | 0.0 | 0.00 | 0.00 | 0.00 | 83 | 1017.0 |
| 20260507040400 | 7 | 360 | 0.0 | 0.0 | 0.00 | 0.00 | 0.00 | 83 | 1017.0 |
| 20260507040204 | 7 | 360 | 0.0 | 0.0 | 0.00 | 0.00 | 0.00 | 82 | 1016.9 |
| 20260507035943 | 7 | 360 | 0.0 | 0.0 | 0.00 | 0.00 | 0.00 | 82 | 1016.9 |
| 20260507035726 | 7 | 360 | 0.0 | 0.0 | 0.00 | 0.00 | 0.00 | 83 | 1017.0 |
| 20260507035526 | 7 | 360 | 0.0 | 0.0 | 0.00 | 0.00 | 0.00 | 82 | 1017.0 |
| 20260507035306 | 7 | 360 | 0.0 | 0.0 | 0.00 | 0.00 | 0.00 | 82 | 1016.9 |
| 20260507035109 | 7 | 360 | 0.0 | 0.0 | 0.00 | 0.00 | 0.00 | 83 | 1016.9 |
| 20260507034909 | 7 | 360 | 0.0 | 0.0 | 0.00 | 0.00 | 0.00 | 82 | 1016.9 |
| 20260507034706 | 7 | 360 | 0.0 | 0.0 | 0.00 | 0.03 | 0.00 | 82 | 1016.9 |
| 20260507034511 | 7 | 360 | 0.0 | 0.0 | 0.00 | 0.03 | 0.00 | 82 | 1016.9 |
| 20260507034249 | 7 | 360 | 0.0 | 0.0 | 0.00 | 0.03 | 0.00 | 81 | 1017.0 |
| 20260507034032 | 8 | 360 | 0.0 | 0.0 | 0.00 | 0.03 | 0.00 | 81 | 1017.0 |
| 20260507033831 | 8 | 360 | 0.0 | 0.0 | 0.00 | 0.03 | 0.00 | 81 | 1017.0 |
| 20260507033609 | 8 | 360 | 0.0 | 0.0 | 0.00 | 0.03 | 0.00 | 80 | 1017.0 |
| 20260507033413 | 8 | 360 | 0.0 | 0.0 | 0.00 | 0.03 | 0.00 | 79 | 1017.1 |
| 20260507033212 | 8 | 360 | 0.0 | 0.0 | 0.00 | 0.03 | 0.00 | 78 | 1017.1 |
| 20260507032955 | 8 | 360 | 0.0 | 0.0 | 0.00 | 0.03 | 0.00 | 77 | 1017.1 |
| 20260507032733 | 8 | 360 | 0.0 | 0.0 | 0.00 | 0.03 | 0.00 | 77 | 1017.1 |
| 20260507032532 | 8 | 360 | 0.0 | 0.0 | 0.00 | 0.03 | 0.00 | 78 | 1017.1 |
| 20260507032314 | 8 | 360 | 0.0 | 0.0 | 0.00 | 0.03 | 0.00 | 79 | 1017.1 |
| 20260507032114 | 8 | 360 | 0.0 | 0.0 | 0.00 | 0.03 | 0.00 | 77 | 1017.0 |
| 20260507031853 | 8 | 360 | 0.0 | 0.0 | 0.00 | 0.03 | 0.00 | 78 | 1017.0 |
| 20260507031657 | 8 | 360 | 0.0 | 0.0 | 0.00 | 0.03 | 0.00 | 77 | 1017.0 |
| 20260507031508 | 8 | 360 | 0.0 | 0.0 | 0.00 | 0.03 | 0.00 | 78 | 1017.0 |
| 20260507031133 | 8 | 360 | 0.0 | 0.0 | 0.00 | 0.03 | 0.00 | 78 | 1016.9 |
| 20260507030932 | 8 | 360 | 0.0 | 0.0 | 0.00 | 0.03 | 0.00 | 78 | 1016.9 |
| 20260507030736 | 8 | 360 | 0.0 | 0.0 | 0.00 | 0.03 | 0.00 | 77 | 1016.9 |
| 20260507030536 | 8 | 360 | 0.0 | 0.0 | 0.00 | 0.03 | 0.00 | 76 | 1017.0 |
| 20260507030335 | 8 | 360 | 0.0 | 0.0 | 0.00 | 0.03 | 0.00 | 76 | 1017.0 |
| 20260507030139 | 8 | 360 | 0.0 | 0.0 | 0.00 | 0.03 | 0.00 | 75 | 1017.1 |
| 20260507025938 | 8 | 360 | 0.0 | 0.0 | 0.00 | 0.03 | 0.00 | 71 | 1017.1 |
| 20260507025742 | 9 | 360 | 0.0 | 0.0 | 0.00 | 0.03 | 0.00 | 71 | 1017.0 |
| 20260507025542 | 9 | 360 | 0.0 | 0.0 | 0.00 | 0.03 | 0.00 | 71 | 1017.1 |
| 20260507025342 | 9 | 360 | 0.0 | 0.0 | 0.00 | 0.03 | 0.00 | 74 | 1017.0 |
| 20260507025145 | 9 | 360 | 0.0 | 0.0 | 0.00 | 0.03 | 0.00 | 74 | 1017.0 |
| 20260507024945 | 9 | 360 | 0.0 | 0.0 | 0.00 | 0.03 | 0.00 | 74 | 1017.0 |
| 20260507024747 | 9 | 360 | 0.0 | 0.0 | 0.00 | 0.03 | 0.00 | 74 | 1016.9 |
| 20260507024547 | 9 | 360 | 0.0 | 0.0 | 0.00 | 0.03 | 0.00 | 73 | 1016.9 |
| 20260507024347 | 9 | 360 | 0.0 | 0.0 | 0.00 | 0.03 | 0.00 | 73 | 1017.0 |
| 20260507024130 | 9 | 360 | 0.0 | 0.0 | 0.00 | 0.03 | 0.00 | 69 | 1016.9 |
| 20260507023930 | 9 | 360 | 0.0 | 0.0 | 0.00 | 0.03 | 0.00 | 69 | 1016.9 |
| 20260507023709 | 9 | 360 | 0.0 | 0.0 | 0.00 | 0.03 | 0.00 | 70 | 1016.9 |
| 20260507023513 | 10 | 360 | 0.0 | 0.0 | 0.00 | 0.03 | 0.00 | 70 | 1016.9 |
| 20260507023313 | 10 | 360 | 0.0 | 0.0 | 0.00 | 0.03 | 0.00 | 70 | 1016.9 |
| 20260507023116 | 10 | 360 | 0.0 | 0.0 | 0.00 | 0.03 | 0.00 | 68 | 1016.9 |
| 20260507022916 | 10 | 360 | 0.0 | 0.0 | 0.00 | 0.03 | 0.00 | 67 | 1016.9 |
| 20260507022716 | 10 | 360 | 0.0 | 0.0 | 0.00 | 0.03 | 0.00 | 60 | 1016.8 |
| 20260507022519 | 10 | 360 | 0.0 | 0.0 | 0.00 | 0.03 | 0.00 | 60 | 1016.8 |
| 20260507022319 | 10 | 360 | 0.0 | 0.0 | 0.00 | 0.03 | 0.00 | 60 | 1016.8 |
| 20260507022122 | 10 | 360 | 0.0 | 0.0 | 0.00 | 0.03 | 0.00 | 61 | 1016.7 |
| 20260507021901 | 10 | 360 | 0.0 | 0.0 | 0.00 | 0.03 | 0.00 | 62 | 1016.7 |
| 20260507021701 | 10 | 360 | 0.0 | 0.0 | 0.00 | 0.03 | 0.00 | 58 | 1016.7 |
| 20260507021513 | 10 | 360 | 0.0 | 0.0 | 0.00 | 0.03 | 0.00 | 57 | 1016.6 |
| 20260507021136 | 10 | 360 | 0.0 | 0.0 | 0.00 | 0.03 | 0.00 | 56 | 1016.7 |
| 20260507020940 | 10 | 360 | 0.0 | 0.0 | 0.00 | 0.03 | 0.00 | 56 | 1016.7 |
| 20260507020740 | 11 | 360 | 0.0 | 0.0 | 0.00 | 0.03 | 0.00 | 56 | 1016.6 |
| 20260507020522 | 11 | 360 | 0.0 | 0.0 | 0.00 | 0.03 | 0.00 | 54 | 1016.6 |
| 20260507020322 | 11 | 360 | 0.0 | 0.0 | 0.00 | 0.03 | 0.00 | 53 | 1016.6 |
| 20260507020121 | 11 | 360 | 0.0 | 0.0 | 0.00 | 0.03 | 0.00 | 55 | 1016.6 |
| 20260507015925 | 11 | 360 | 0.0 | 0.0 | 0.00 | 0.03 | 0.00 | 55 | 1016.5 |
| 20260507015725 | 11 | 360 | 0.0 | 0.0 | 0.00 | 0.03 | 0.00 | 59 | 1016.5 |
| 20260507015523 | 11 | 360 | 0.0 | 0.0 | 0.00 | 0.03 | 0.00 | 59 | 1016.5 |
| 20260507015327 | 11 | 360 | 0.0 | 0.0 | 0.00 | 0.03 | 0.00 | 57 | 1016.4 |
| 20260507015127 | 11 | 360 | 0.0 | 0.0 | 0.00 | 0.03 | 0.00 | 58 | 1016.5 |
| 20260507014930 | 11 | 360 | 0.0 | 0.0 | 0.00 | 0.03 | 0.00 | 61 | 1016.4 |